Location: Unspecified
(43.4680°N, 87.1740°E)
Time: 21:29:42
(UTC+00:00)

Cosmos 482 Debris - Pass Details

Date: 17 April 2021
Orbit: 200 x 2132 km, 52.0° (Epoch: 12 May)

Event Time Altitude Azimuth Distance (km) Brightness Sun altitude
Rises 13:30:57 0° 244° (WSW) 2,669 8.5 -6.7°
Reaches altitude 10° 13:33:39 10° 248° (WSW) 1,494 7.3 -7.2°
Maximum altitude 13:36:45 55° 328° (NNW) 382 3.9 -7.7°
Drops below altitude 10° 13:38:54 10° 48° (NE) 1,042 5.5 -8.0°
Enters shadow 13:40:09 - 53° (NE) 1,596 6.4 -8.2°
